CAPE
0 0 9 66 39 32 0 0 0 0 10 4 0 0 0 0 0 0 0 0 0 0 116 85 186 159 0 0 0 0 1 3 5 9 3 7 6 7 7 6 5 4 4 4 1 0 1 1 1
0 0 11 47 8 20 0 0 0 0 0 4 0 0 0 0 0 0 0 0 0 0 101 13 63 177 0 0 0 0 0 3 5 5 4 5 7 4 5 6 5 7 3 0 0 0 1 2 1
0 0 0 11 4 10 0 0 0 0 0 0 0 0 0 0 0 0 0 0 0 18 43 9 88 141 1 0 0 0 0 1 3 5 5 5 2 6 6 5 6 5 1 1 0 1 0 0 2
0 0 0 4 4 2 0 0 0 1 19 65 107 4 0 0 0 0 0 0 14 30 58 9 170 93 9 0 0 1 2 2 3 4 6 3 3 6 6 6 4 0 0 0 0 0 0 0 0
0 9 11 15 7 6 0 0 0 13 18 86 103 51 15 0 0 1 0 0 22 39 33 10 162 94 56 0 0 0 1 2 6 5 3 3 8 8 10 2 0 0 0 0 0 0 0 0 0
50 24 10 4 11 0 0 0 0 0 6 62 66 98 37 0 0 2 2 3 27 42 20 14 100 102 92 73 0 0 0 0 2 4 6 6 4 8 0 0 0 0 0 0 0 0 0 0 0
18 35 7 18 6 5 0 0 0 4 19 20 84 94 27 0 2 2 3 1 19 28 14 16 59 99 76 89 9 0 0 0 0 3 5 3 6 4 0 0 0 0 0 0 0 0 4 6 0
37 48 20 12 14 4 0 0 0 0 0 22 85 75 82 2 0 2 5 6 25 13 5 5 14 92 80 100 18 21 1 0 0 0 0 0 0 0 0 0 0 0 0 0 0 0 0 6 0
51 28 3 0 9 22 5 0 0 29 34 99 97 39 5 1 3 7 6 5 2 5 6 3 9 35 57 110 50 0 0 0 0 0 0 0 0 0 0 0 0 0 0 0 4 7 0 0 0
24 12 0 5 29 23 26 4 0 4 68 135 150 16 41 0 4 3 2 3 6 4 5 4 11 15 48 97 1 0 0 0 0 0 0 0 0 0 0 0 0 0 0 3 1 0 0 0 0
1 3 15 23 36 47 35 12 14 8 1 23 97 106 64 2 3 2 2 2 3 2 6 3 75 23 23 8 0 1 0 0 0 0 0 0 0 0 0 1 0 4 1 29 0 0 0 0 0
0 0 25 31 21 24 49 21 33 28 35 18 117 156 91 48 6 2 6 2 1 2 6 21 60 21 10 2 0 0 0 0 0 0 0 0 0 0 1 8 18 27 25 2 0 0 0 0 0
0 0 0 0 0 0 1 15 43 34 19 0 20 20 48 93 58 13 2 3 1 2 12 5 9 7 5 0 0 0 0 0 0 0 0 0 1 1 13 22 9 0 0 0 0 0 0 0 0
3 0 0 0 0 0 0 5 13 11 14 10 16 5 56 78 99 42 8 5 1 3 6 3 2 0 0 0 0 0 0 0 0 0 1 0 0 12 22 1 0 0 0 0 0 0 0 0 0
7 8 2 0 0 0 0 0 3 1 42 51 8 32 52 80 112 42 5 5 3 5 10 0 3 2 0 0 0 0 0 0 0 3 12 0 7 13 5 0 0 0 0 0 0 0 0 0 0
2 0 0 0 0 0 0 0 0 6 9 22 35 20 53 47 80 84 20 4 5 5 8 0 0 0 0 0 0 0 0 0 3 12 12 2 23 5 0 0 0 0 0 0 0 0 0 0 0
0 0 0 0 0 0 0 0 0 0 27 5 43 33 25 54 91 89 15 2 2 0 7 5 0 0 0 0 0 0 0 2 20 19 24 27 1 0 0 0 0 0 0 0 0 0 0 0 0
0 0 0 0 0 0 0 0 4 2 46 20 5 2 20 19 24 108 61 18 11 1 0 7 1 0 3 1 0 3 14 21 12 7 0 0 0 0 0 0 0 0 0 0 0 0 0 0 0
0 0 0 0 0 6 12 3 0 0 0 20 40 3 0 0 8 116 126 33 25 3 1 0 1 1 6 2 1 2 2 0 0 0 0 0 0 0 0 0 0 0 0 0 0 0 0 0 0
0 0 0 0 0 0 0 1 6 1 0 0 5 12 0 4 14 25 58 11 14 4 1 2 2 2 5 1 0 3 0 0 0 0 0 0 0 0 0 0 0 0 0 0 0 0 0 0 0
0 0 0 0 0 0 0 0 0 0 41 3 0 0 0 0 19 10 11 1 1 0 1 5 5 4 7 4 5 0 0 0 0 0 0 0 0 0 0 0 0 0 0 0 0 0 0 0 0
1 0 1 2 3 0 0 0 0 0 22 3 3 1 0 0 0 10 34 13 3 0 1 10 0 0 4 5 0 0 0 0 0 0 0 0 0 0 0 0 0 0 0 0 0 0 0 0 0
0 6 0 0 4 6 0 0 0 0 0 0 0 0 0 0 0 0 5 0 3 2 1 0 0 0 0 0 0 0 0 0 0 0 0 0 0 0 0 0 0 0 0 0 0 0 0 0 0
0 2 12 5 7 2 0 0 0 10 0 0 0 0 0 0 14 0 9 1 5 5 2 0 0 0 0 0 0 0 0 0 0 0 0 0 0 0 0 0 0 0 0 0 0 0 0 0 0
0 2 0 0 5 0 0 0 0 0 0 0 0 0 0 0 6 0 0 4 4 4 3 2 0 0 0 0 0 0 0 0 0 0 0 0 0 0 0 0 0 0 0 0 0 0 0 0 0
1 0 0 0 0 0 0 0 0 0 0 0 0 0 0 0 0 0 0 1 2 3 3 2 2 2 0 0 0 0 0 0 0 0 0 0 0 0 0 0 0 0 0 0 0 0 0 0 0
0 6 0 2 20 6 3 0 0 0 0 0 0 0 0 0 0 0 1 1 2 2 2 2 2 1 1 0 0 0 0 0 0 0 0 0 0 0 0 0 0 0 0 0 0 0 0 0 0
0 0 0 1 0 4 0 0 9 0 0 0 0 0 0 0 6 5 2 2 3 1 1 1 2 0 1 0 0 0 0 0 0 0 0 0 0 0 0 0 0 0 0 0 0 0 0 0 0
0 0 4 0 0 1 0 0 1 0 0 0 0 0 0 4 4 5 2 2 0 0 0 0 1 0 0 0 0 0 0 0 0 0 0 0 0 0 0 0 0 0 0 0 0 0 0 0 0
0 0 0 2 0 1 0 1 0 0 1 0 0 0 1 11 1 0 0 0 0 0 0 0 0 1 3 1 0 0 0 0 0 0 0 0 0 0 1 3 2 0 0 0 0 0 0 0 0
CIN
0 0 -31 -39 -2 -3 0 0 0 0 -13 -61 0 0 0 0 0 0 0 0 0 0 -50 -17 -4 -6 0 0 0 0 0 0 0 0 0 0 -1 -1 0 0 0 0 0 0 0 0 0 0 0
0 0 -41 -7 -3 -2 0 0 0 0 0 -41 0 0 0 0 0 0 0 0 0 0 -71 -118 -34 -4 0 0 0 0 0 0 0 0 0 -1 0 0 0 0 0 0 0 0 0 0 0 0 0
0 0 0 -3 -2 -3 0 0 0 0 0 0 0 0 0 0 0 0 0 0 0 -128 -103 -1 -10 -2 -16 0 0 0 0 0 0 0 0 0 -1 0 0 0 0 0 0 0 0 0 0 0 0
0 0 -2 -2 -2 -2 0 0 0 -9 -57 -89 -69 -49 0 0 0 0 0 0 -220 -149 -69 -108 -1 -10 -13 0 0 0 0 0 0 0 0 0 -1 0 0 0 0 0 0 0 0 0 0 0 0
0 -2 -1 0 -1 -2 0 0 0 -16 -20 -41 -65 -34 -114 0 0 -178 0 0 -192 -138 -92 -87 -2 -14 -48 0 0 0 0 0 0 0 0 0 0 0 0 0 0 0 0 0 0 0 0 0 0
0 -1 -1 0 0 -1 0 0 0 0 -13 -52 -60 -56 -100 0 -1 -1 -1 0 -166 -129 -118 -1 -10 -19 -52 -61 0 0 0 0 -1 -1 -1 0 0 0 0 0 0 0 0 0 0 0 0 0 0
0 0 0 -1 -1 -2 0 0 0 -18 -17 -35 -51 -27 -67 0 -1 -1 -1 -1 -165 -138 -9 0 -59 -29 -78 -69 -10 0 0 0 0 -1 -1 -1 -1 0 0 0 0 0 0 0 0 0 -8 -11 -1
-1 0 0 0 -1 -2 0 0 0 0 0 -87 -71 -14 -65 -50 -2 -4 -3 -1 -159 0 -1 0 0 -39 -51 -58 -3 -56 -97 0 0 0 0 0 0 0 0 0 0 0 0 0 0 -1 0 -15 0
-1 0 0 -1 -1 -2 -2 0 0 -45 -35 -80 -88 -108 -48 -38 0 0 0 -19 0 -1 0 -1 -1 -34 -46 -52 -47 0 0 0 0 0 0 0 0 0 0 0 0 0 0 0 -17 -21 0 0 0
0 0 0 -3 -3 -5 -2 -3 0 -11 -21 -33 -64 -201 -226 0 -1 -1 -2 0 0 -1 -4 -4 -1 -1 -12 -25 -14 0 0 0 0 0 0 0 0 0 0 0 0 0 0 -16 -5 0 0 0 0
-1 0 -2 -2 -3 -5 -3 -1 -4 -2 -7 -17 -32 -116 -180 -32 -1 -1 -2 -1 0 0 -1 -1 -16 0 -1 0 0 -1 0 0 0 0 0 0 0 0 0 -1 0 -1 -1 0 -3 0 0 0 0
0 0 -2 -13 -6 -6 -9 -4 -2 -1 -2 -34 -23 -84 -160 -179 -225 -135 0 -2 -1 -1 0 -98 -27 0 -1 -14 0 0 0 0 0 0 0 0 0 0 0 -1 0 -4 0 -1 0 0 0 0 0
0 0 0 -4 0 0 -1 -1 -1 -2 -3 -1 -43 -85 -108 -140 -182 -182 -28 0 -1 -1 0 -3 -79 -1 0 0 0 0 0 0 0 0 0 0 0 -1 0 0 -14 0 0 0 0 0 0 0 0
0 -1 0 0 0 0 0 -5 -15 -3 -10 -3 -33 -23 -69 -109 -121 -123 -199 0 0 -1 0 -2 -18 -12 0 0 0 0 0 0 0 0 0 0 -1 -1 -1 -16 0 0 0 0 0 0 0 0 0
0 -1 -2 0 0 0 0 0 -1 -3 -2 -1 -13 -14 -38 -84 -67 -124 -189 0 -1 0 0 0 -23 -42 0 0 0 0 0 0 0 0 0 0 0 0 -19 0 0 0 0 0 0 0 0 0 0
-1 0 0 0 0 0 0 0 0 -2 -3 -1 -1 -2 -23 -53 -95 -109 -128 -12 0 -1 -1 -1 0 0 0 0 0 0 0 0 0 -1 0 0 0 -23 0 0 0 0 0 0 0 0 0 0 0
0 0 0 0 0 0 0 0 0 0 -1 -2 -1 -2 -23 -41 -48 -54 -122 -74 0 0 -1 0 0 0 0 0 0 0 0 0 0 0 0 0 -15 0 0 0 0 0 0 0 0 0 0 0 0
0 -1 0 0 0 0 0 0 -2 -7 -2 -2 -2 -2 -2 -29 -49 -84 -111 -135 -113 -1 0 0 -2 0 0 -1 0 -1 0 0 0 0 0 0 0 0 0 0 0 0 0 0 0 0 0 0 0
0 0 0 0 0 -2 0 -2 0 0 0 -3 -2 -2 0 0 -49 -68 -66 -105 -105 -113 0 0 0 0 0 -1 0 -1 0 0 0 0 0 0 0 0 0 0 0 0 0 0 0 0 0 0 0
0 0 0 0 0 0 0 -1 -2 -3 0 0 -3 -1 0 -22 -48 -65 -55 -109 -125 -55 0 0 0 -1 0 -1 -1 0 0 0 0 0 0 0 0 0 0 0 0 0 0 0 0 0 0 0 0
-1 0 0 0 0 0 0 -1 0 0 -2 -7 0 -2 0 0 -48 -84 -76 -73 0 0 -1 -124 -79 -1 -1 0 -1 -1 0 0 0 0 0 0 0 0 0 0 0 0 0 0 0 0 0 0 0
-1 0 -1 -1 -2 0 0 0 0 0 -1 -6 -1 -1 0 0 -2 -57 -78 -120 0 0 0 -218 -1 0 -1 0 0 0 0 0 0 0 0 0 0 0 0 0 0 0 0 0 0 0 0 0 0
0 -2 0 -2 -1 -2 0 0 0 -1 0 0 0 0 0 0 0 0 -93 0 -209 -94 -12 0 0 0 0 0 0 0 0 0 0 0 0 0 0 0 0 0 0 0 0 0 0 0 0 0 0
-1 -29 -3 -13 -2 -2 0 0 0 -3 0 0 0 0 0 0 -53 0 -118 -97 -130 -150 -23 0 0 0 0 0 0 0 0 0 0 0 0 0 0 0 0 0 0 0 0 0 0 0 0 0 0
-1 -1 -1 0 -3 0 0 0 0 0 0 0 0 0 0 0 -24 0 0 0 0 -84 0 0 0 0 0 0 0 0 0 0 0 0 0 0 0 0 0 0 0 0 0 0 0 0 0 0 0
0 0 -1 0 0 0 0 0 0 0 0 0 0 0 0 0 0 0 0 0 0 0 0 0 0 0 0 0 0 0 0 0 0 0 0 0 0 0 0 0 0 0 0 0 0 0 0 0 0
-5 -3 0 -17 -15 -1 -10 0 0 0 0 0 0 0 0 0 -3 0 0 0 0 0 0 0 0 0 0 0 0 0 0 0 0 0 0 0 0 0 0 0 0 0 0 0 0 0 0 0 0
0 0 0 -1 0 -4 -1 -18 -6 0 0 0 0 0 0 0 -66 0 0 0 0 0 0 0 0 0 0 0 0 0 0 0 0 0 0 0 0 0 0 0 0 0 0 0 0 0 0 0 0
0 0 -1 0 0 -1 0 0 0 0 0 0 0 0 0 -61 -1 -3 -1 0 0 0 0 0 0 0 0 0 0 0 0 0 0 0 0 0 0 0 0 0 0 0 0 0 0 0 0 0 0
0 0 0 -2 0 0 -1 -14 0 0 0 0 0 0 -61 -11 -1 0 0 0 0 0 0 0 0 0 0 0 0 0 0 0 0 0 0 0 0 0 0 0 0 0 0 0 0 0 0 0 0
Wind_Speed
28 25 21 18 20 23 28 22 20 16 16 15 13 13 15 19 15 16 12 7 10 15 15 16 16 13 12 9 2 2 4 6 8 6 6 9 12 16 19 20 20 21 21 21 21 20 20 20 18
27 22 19 21 25 31 29 22 21 21 18 16 15 16 18 18 17 15 8 6 11 13 14 15 15 14 10 9 6 3 4 7 8 7 7 9 11 15 17 18 18 19 20 21 21 19 18 19 18
26 21 23 22 25 28 28 21 25 23 21 19 18 18 18 16 18 12 15 4 11 10 12 11 13 14 10 7 5 5 5 7 8 6 6 8 11 13 15 16 17 18 19 19 20 19 19 18 19
22 21 25 30 27 24 27 25 24 20 19 18 19 19 18 18 17 12 6 5 9 8 8 10 11 14 10 6 5 4 5 7 8 5 6 8 9 11 13 14 15 16 17 18 18 18 18 17 17
22 25 34 36 35 30 25 28 23 22 21 19 17 21 18 17 16 9 1 4 7 7 6 11 9 12 9 6 5 3 3 5 5 5 5 6 8 9 10 12 13 14 16 17 17 17 17 16 17
27 28 39 42 38 32 33 26 24 29 27 21 22 21 20 16 10 5 1 4 4 6 6 8 8 10 9 6 5 3 1 2 5 3 3 4 6 8 9 10 12 13 14 15 16 16 16 16 16
30 34 46 44 44 39 32 25 29 30 29 26 23 24 20 16 11 5 2 3 5 5 5 7 7 8 8 6 5 4 2 1 2 2 2 3 4 6 7 9 10 12 13 14 15 14 15 15 16
30 34 47 47 44 46 31 33 31 31 34 22 21 25 24 17 10 6 4 5 6 6 6 6 7 7 8 9 9 5 3 1 2 2 2 3 4 5 6 8 9 11 12 13 13 14 15 15 17
30 41 50 47 45 43 34 37 28 26 27 23 23 25 23 9 9 8 7 8 10 10 10 10 8 8 8 8 9 6 3 0 1 1 2 3 2 4 5 7 8 10 11 13 14 13 14 15 17
35 46 51 43 40 43 41 38 34 33 28 25 23 22 17 12 12 11 10 10 13 14 13 13 13 12 12 11 9 7 6 4 2 2 2 2 2 3 5 7 8 9 12 12 12 13 14 15 16
37 54 44 41 43 38 43 43 37 35 38 32 28 22 17 19 17 17 14 12 14 16 16 15 14 15 14 14 13 11 9 8 6 4 3 3 3 3 5 6 7 9 11 11 12 13 15 16 16
46 47 42 43 41 41 43 41 43 39 32 26 26 21 18 20 22 22 18 14 15 16 17 17 15 15 15 16 17 13 11 9 7 5 4 4 4 3 4 5 7 10 11 11 13 14 15 16 16
43 45 48 45 44 43 42 45 43 43 39 31 26 21 21 22 26 26 21 17 17 17 18 18 16 16 17 17 17 16 15 11 7 5 5 6 4 3 3 5 8 9 10 11 13 14 14 15 15
38 41 44 47 48 45 47 48 42 42 40 39 33 29 25 25 22 28 25 22 19 17 19 20 19 18 18 18 18 16 15 13 11 9 8 7 6 4 5 7 9 9 11 12 13 13 13 14 15
39 46 45 47 49 49 44 57 59 43 39 42 38 34 30 27 24 22 28 26 23 18 20 22 20 19 20 19 18 17 16 14 13 11 10 9 7 6 6 7 9 10 11 12 13 13 12 13 14
44 47 53 40 41 48 41 65 53 47 46 45 41 40 38 32 27 23 26 25 23 18 20 21 22 21 20 20 19 18 16 15 14 13 12 11 9 7 7 9 9 10 11 12 12 12 12 13 14
40 49 49 47 42 44 49 63 54 48 43 48 47 41 38 35 34 27 22 27 27 20 19 22 22 23 22 21 20 18 16 15 16 15 13 12 10 8 9 10 10 10 12 12 11 12 12 12 14
41 45 45 47 38 42 55 65 50 43 50 47 46 47 43 41 35 30 24 25 27 24 20 22 23 24 23 21 20 19 17 16 16 15 14 12 11 9 10 10 10 11 12 12 11 11 12 12 13
44 47 49 47 43 44 50 55 61 56 48 46 46 46 48 48 40 35 29 24 24 30 27 20 23 23 23 22 20 20 20 17 16 16 15 13 12 11 10 11 10 11 11 11 10 10 11 13 12
46 49 52 49 46 46 53 57 53 54 61 51 45 44 45 44 42 37 34 27 25 31 25 23 21 23 23 22 21 21 19 20 18 17 17 15 13 11 11 9 9 10 10 10 9 9 13 15 12
47 50 50 48 40 43 47 59 58 55 49 54 54 46 43 45 43 38 32 29 24 30 27 21 24 25 23 21 20 19 18 19 20 18 17 15 14 12 11 9 10 10 11 11 11 12 14 16 16
48 47 46 45 41 48 38 58 54 55 54 53 53 51 49 45 42 38 35 29 26 29 25 24 27 24 23 21 21 21 22 22 23 20 18 16 14 13 11 10 11 11 12 12 13 13 15 16 19
43 36 41 41 45 46 49 48 45 47 57 56 55 54 46 46 44 40 36 32 28 27 28 20 26 24 23 22 22 22 22 22 18 17 15 15 15 13 12 11 11 12 12 12 11 13 15 17 19
24 29 24 32 38 51 51 48 47 47 54 47 47 49 50 45 42 40 34 33 30 27 27 22 22 25 23 22 22 22 21 21 19 18 17 16 15 14 13 12 11 11 11 11 13 14 16 17 19
15 17 31 36 41 50 35 47 53 39 41 47 43 42 45 46 40 38 32 32 30 25 23 23 23 25 23 23 22 22 22 20 19 17 17 15 15 15 14 11 10 10 11 12 13 15 17 17 17
19 15 25 34 36 34 34 45 43 49 49 38 43 41 40 43 40 36 31 29 29 28 24 23 23 22 23 22 22 22 21 21 20 19 18 18 17 15 12 12 10 11 11 13 16 18 17 16 16
32 40 39 19 21 26 30 34 34 32 36 37 39 38 39 39 39 36 31 29 27 27 26 25 23 23 22 23 22 22 22 21 20 19 19 17 16 14 12 12 12 11 13 16 17 16 16 15 16
29 36 32 24 20 26 26 28 26 26 33 34 37 36 36 36 34 33 31 28 27 23 25 24 23 24 21 23 22 22 22 22 19 19 18 16 14 14 12 12 13 15 14 16 15 14 14 14 16
31 35 29 28 21 18 23 25 20 24 26 31 34 35 33 31 30 29 28 27 27 24 23 24 25 21 21 22 22 21 21 20 19 18 17 14 13 13 13 12 14 16 15 13 12 14 14 15 17
24 25 29 25 18 20 21 21 17 21 28 32 32 31 28 26 24 24 24 24 24 23 18 21 23 22 23 21 19 20 19 18 19 17 16 12 12 14 12 13 14 18 15 13 14 16 17 19 19
Wind_Direction
292 297 302 298 283 276 267 271 274 282 290 286 289 287 287 281 290 294 307 340 101 123 126 128 123 118 112 101 111 88 78 81 84 76 76 75 76 80 84 81 74 73 68 63 55 44 37 34 20
290 296 298 288 274 266 266 269 267 272 285 287 288 283 284 280 285 295 321 328 112 120 126 128 128 125 120 109 97 93 86 85 87 85 83 79 77 82 83 79 74 70 67 63 58 41 30 29 18
289 289 285 280 273 264 267 272 269 273 281 279 281 281 283 284 276 295 288 81 118 121 126 129 130 129 127 119 109 100 93 90 91 89 86 85 84 82 81 78 73 67 64 61 58 46 35 21 17
290 282 278 269 267 271 265 271 271 273 278 278 277 280 281 278 283 294 310 111 122 125 129 132 134 132 132 134 129 115 99 94 95 96 93 88 83 79 79 72 68 60 58 58 53 44 33 19 10
285 276 266 265 265 266 269 266 271 269 274 275 277 273 281 282 281 297 339 137 134 132 137 135 142 137 141 154 145 134 111 96 96 102 98 89 81 76 62 61 58 55 54 54 47 43 30 6 1
273 270 262 260 262 265 263 267 269 265 268 272 272 273 275 283 287 293 247 162 163 142 143 140 153 144 152 160 160 156 166 108 101 102 101 88 79 73 58 57 55 54 53 52 47 32 17 358 353
267 263 259 262 261 260 260 267 262 264 265 267 273 269 274 272 278 272 206 192 199 172 162 151 152 160 167 182 178 163 138 132 117 108 108 91 67 57 52 50 48 46 48 41 39 14 1 352 348
267 266 260 258 259 257 261 261 263 263 262 272 268 267 267 263 259 252 235 231 215 214 209 181 166 187 191 212 220 189 150 132 123 120 111 88 63 43 42 41 34 38 38 33 20 352 338 348 353
268 261 257 256 257 259 260 259 262 268 264 265 263 265 269 250 242 238 228 230 231 231 232 231 208 189 192 207 217 208 211 189 160 128 116 97 36 39 38 15 31 30 23 16 352 350 350 359 2
257 256 257 260 261 259 258 257 259 258 259 260 261 265 263 248 240 233 219 222 229 231 233 233 227 224 222 226 210 217 242 260 252 227 152 291 334 351 5 20 24 16 6 3 354 351 349 354 5
263 256 261 263 259 263 260 254 254 255 254 256 256 256 254 248 244 240 236 229 229 233 234 234 229 228 225 231 226 238 249 260 263 252 249 279 305 343 8 20 22 9 8 354 344 339 341 352 3
263 260 262 262 263 264 257 256 251 250 251 259 259 253 247 247 245 242 238 233 232 230 232 235 231 229 230 232 235 243 251 257 260 253 250 271 296 335 4 17 5 357 353 343 336 334 347 358 4
267 264 262 261 262 262 260 252 252 250 249 254 258 257 252 250 246 244 242 237 234 232 233 234 231 230 233 234 241 245 252 256 258 251 254 270 288 320 353 0 344 350 345 337 330 336 349 358 4
270 269 266 261 258 258 256 254 253 251 251 252 251 254 253 251 245 243 241 238 233 230 233 234 234 233 234 237 242 248 253 257 259 259 260 266 282 301 322 330 331 340 334 328 328 339 350 356 4
270 265 265 261 255 255 258 251 244 249 250 249 249 250 252 253 247 243 241 241 238 235 234 233 233 233 237 239 242 249 254 257 259 261 262 265 276 291 306 316 323 333 329 326 333 343 352 357 2
268 264 258 260 257 251 249 244 246 248 248 247 249 248 248 250 249 245 242 240 237 234 231 233 234 234 236 241 244 250 255 258 261 261 262 265 275 287 297 303 317 326 322 322 330 339 347 353 357
263 257 256 258 258 253 242 245 246 249 247 246 246 247 246 247 246 246 240 240 237 236 232 234 231 233 237 241 246 250 254 257 261 262 261 264 273 282 290 298 313 319 316 317 326 334 340 348 353
262 257 257 254 255 252 246 243 246 249 245 246 246 245 245 245 245 244 241 240 239 238 238 236 235 232 237 242 245 250 253 256 260 260 260 260 270 276 284 296 307 310 310 314 321 333 342 347 352
265 260 256 256 256 256 249 247 243 242 247 246 245 245 243 243 246 245 243 238 235 240 238 232 231 230 233 237 238 245 248 253 257 259 259 260 266 272 280 292 302 306 305 309 319 332 337 339 351
263 259 255 258 256 255 250 249 248 243 238 242 244 244 243 243 243 243 240 238 232 239 233 235 226 230 230 234 239 246 247 254 255 256 258 262 265 271 281 291 299 302 302 306 314 322 326 330 333
262 256 254 253 260 255 252 248 246 241 241 239 241 244 244 241 240 240 236 234 226 236 235 227 228 232 228 231 237 243 247 251 252 252 257 261 267 273 281 289 295 297 298 299 306 313 319 324 325
260 254 255 254 254 246 245 241 243 237 237 238 238 240 242 241 240 239 237 234 226 236 237 232 232 229 225 224 232 234 242 244 251 250 255 260 267 274 281 288 293 296 299 300 304 309 315 320 322
250 264 251 251 248 248 243 244 244 237 234 236 237 238 241 239 239 238 240 236 233 234 235 217 231 227 224 224 231 234 241 246 247 248 251 261 268 274 281 286 289 294 300 304 311 312 315 318 322
273 260 247 249 245 240 239 238 240 235 231 236 238 237 237 239 239 238 240 235 233 234 230 222 214 228 223 224 227 231 236 243 244 248 250 258 266 272 278 283 287 294 301 306 312 316 316 320 323
176 245 240 239 235 235 243 237 235 241 238 235 238 238 237 235 237 235 234 232 229 225 216 222 217 224 225 225 228 233 235 237 238 237 246 250 259 268 271 275 282 291 301 308 314 315 320 321 324
159 229 235 233 234 239 238 236 238 240 239 240 238 240 238 233 234 232 230 228 229 227 215 213 219 217 226 227 231 233 235 241 246 245 249 256 262 268 270 277 282 292 301 308 310 314 318 325 326
179 194 200 244 245 243 240 245 251 246 235 236 238 240 239 233 232 233 232 227 225 224 218 213 215 224 225 233 236 236 237 239 242 250 255 260 263 264 269 275 281 289 300 307 310 315 312 323 324
177 178 200 225 239 237 239 240 243 237 232 235 238 240 237 232 231 234 230 227 227 221 222 220 223 225 224 236 237 237 238 244 246 249 251 257 259 262 263 271 281 299 305 307 308 307 315 324 324
165 166 178 189 236 256 238 242 258 249 240 239 241 241 235 230 231 234 230 228 228 228 227 228 231 226 230 238 242 240 242 245 249 248 254 257 256 258 265 270 286 299 298 302 308 310 316 319 322
175 173 178 187 250 259 252 246 276 265 250 243 242 240 232 231 229 230 225 225 225 227 225 229 234 236 238 240 242 245 245 247 249 246 251 248 255 265 264 281 298 293 294 300 304 308 312 315 318